Location: Memphis
(29.8667°N, 31.2500°E)
Time: 08:14:11
(UTC+00:00)

FUSE - Pass Details

Date: 03 March 2021
Orbit: 742 x 756 km, 25.0° (Epoch: 15 April)

Event Time Altitude Azimuth Distance (km) Brightness Sun altitude
Rises 16:54:41 0° 259° (W) 3,192 9.0 -13.6°
Reaches altitude 10° 16:57:12 10° 255° (WSW) 2,268 7.7 -14.2°
Maximum altitude 17:02:25 51° 180° (S) 939 4.4 -15.3°
Enters shadow 17:05:31 23° 114° (ESE) 1,548 5.0 -16.0°
